[[{"header":{"parameterUnit":"m.s-1","parameterCategory":1,"la1":30.2991,"la2":30.254,"lo1":-89.0895,"lo2":-89.0444,"dy":0.0017,"dx":0.0017,"nx":28,"ny":28,"refTime":"2025-04-21T03:00:00:Z","depth":0,"parameterNumber":2,"parameterNumberName":"U-component_of_WINDS"},"data":[0,0,0,0,0,0,0,0,0,0,0,0,0,0,0,0,0,0,0,0,0,0,0,0,0,0,0,0,0,0,0,0,0,0,0,0,0,0,0,0,0,0,0,0,0,0,0,0,0,0,0,0,0,0,0,0,0,0,-2.4653,-2.4654,0,-2.4713,-2.4714,-2.4714,-2.4716,-2.4715,-2.4715,-2.4714,-2.4773,-2.4775,-2.4777,0,0,0,0,0,0,0,0,0,0,0,0,0,-2.454,-2.4542,-2.4653,-2.4654,-2.4655,-2.4713,-2.4714,-2.4714,-2.4716,-2.4715,-2.4714,-2.4714,-2.4772,-2.4775,-2.4778,0,0,0,0,0,0,0,0,0,0,0,0,0,-2.4593,-2.4543,-2.4653,-2.4663,-2.4664,-2.4713,-2.4714,-2.4715,-2.4716,-2.4715,-2.4714,-2.4713,-2.4771,-2.4775,-2.4778,-2.482,0,0,-2.4788,-2.479,0,0,0,0,0,0,0,0,-2.459,-2.4598,-2.4661,-2.4662,-2.4664,-2.4706,-2.4695,-2.475,-2.4717,-2.4696,-2.4714,-2.4713,-2.4751,-2.4756,-2.477,-2.4823,-2.4826,-2.4789,-2.4791,-2.4792,-2.4793,0,0,0,0,0,0,0,-2.4587,-2.4595,-2.4677,-2.4662,-2.4664,-2.4664,-2.467,-2.4706,-2.4729,-2.4698,-2.4698,-2.4706,-2.4752,-2.4767,-2.4771,-2.4827,-2.4789,-2.4792,-2.4794,-2.4795,-2.4917,-2.4919,0,0,0,0,0,0,-2.4581,-2.4592,-2.4675,-2.4679,-2.4624,-2.4667,-2.4674,-2.4694,-2.4729,-2.4733,-2.4706,-2.4705,-2.4761,-2.4767,-2.4773,-2.4825,-2.4792,-2.4795,-2.4797,-2.4916,-2.4918,-2.4919,0,0,0,0,0,0,-2.4579,-2.4589,-2.4673,-2.4635,-2.4646,-2.467,-2.4692,-2.4695,-2.471,-2.4735,-2.4739,-2.4717,-2.4761,-2.4769,-2.4809,-2.4827,-2.4797,-2.48,-2.4915,-2.4917,-2.4918,-2.4928,0,0,0,0,0,0,-2.4576,-2.4588,-2.4604,-2.4636,-2.4648,-2.4707,-2.4693,-2.4697,-2.4716,-2.4715,-2.4746,-2.475,-2.4761,-2.4804,-2.4812,-2.4831,-2.4802,-2.4913,-2.4916,-2.4918,-2.4926,-2.493,-2.4933,0,0,0,0,0,-2.4572,-2.4604,-2.4605,-2.4615,-2.4669,-2.4708,-2.4715,-2.4727,-2.4717,-2.4734,-2.475,-2.4749,-2.4824,-2.4808,-2.4817,-2.4837,-2.4912,-2.4915,-2.4918,-2.4924,-2.4929,-2.4933,0,0,0,0,0,0,-2.4574,-2.4609,-2.461,-2.4654,-2.4678,-2.4709,-2.473,-2.4732,-2.4759,-2.4757,-2.477,-2.4777,-2.4817,-2.4831,-2.4813,-2.488,-2.4867,-2.4872,-2.4869,-2.4873,-2.4877,-2.4872,-2.4805,0,0,0,0,0,-2.4579,-2.4609,-2.4637,-2.4674,-2.4686,-2.4706,-2.4723,-2.473,-2.4756,-2.4766,-2.4785,-2.4809,-2.4838,-2.4857,-2.4885,-2.4929,-2.4935,-2.4947,-2.4951,-2.4954,-2.4957,-2.4981,-2.4986,-2.4928,-2.4928,-2.4928,0,0,-2.4591,-2.4614,-2.4631,-2.4675,-2.4694,-2.4723,-2.4714,-2.4746,-2.4767,-2.477,-2.4809,-2.4825,-2.4853,-2.4895,-2.4914,-2.4908,-2.4975,-2.4957,-2.4959,-2.4961,-2.4984,-2.499,-2.4995,-2.493,-2.493,-2.4929,0,0,-2.4627,-2.4648,-2.468,-2.47,-2.473,-2.4744,-2.4751,-2.4782,-2.4792,-2.4832,-2.4834,-2.486,-2.491,-2.493,-2.4946,-2.4991,-2.4991,-2.5,-2.5018,-2.5041,-2.5045,-2.5049,-2.5064,-2.507,-2.5004,-2.5004,-2.5004,0,-2.4638,-2.4683,-2.4696,-2.4728,-2.4746,-2.4751,-2.4784,-2.4802,-2.484,-2.4852,-2.4846,-2.4908,-2.4927,-2.4974,-2.4985,-2.4999,-2.5007,-2.4996,-2.5044,-2.5048,-2.5052,-2.5066,-2.5072,-2.5005,-2.5005,-2.5004,-2.5004,0,-2.4694,-2.4725,-2.4747,-2.4784,-2.4805,-2.4837,-2.4855,-2.4875,-2.488,-2.4894,-2.4934,-2.4958,-2.4991,-2.5003,-2.5008,-2.505,-2.5045,-2.5041,-2.5027,-2.5058,-2.5072,-2.5077,-2.5006,-2.5006,-2.5005,-2.5005,0,0,-2.4731,-2.4776,-2.4783,-2.48,-2.4834,-2.4858,-2.489,-2.4923,-2.4939,-2.4966,-2.4992,-2.5035,-2.5031,-2.505,-2.5058,-2.5079,-2.5112,-2.5072,-2.5073,-2.5077,-2.5158,-2.516,-2.5166,-2.5113,-2.5114,-2.5115,-2.5155,0,-2.477,-2.4827,-2.4841,-2.4889,-2.4918,-2.4924,-2.4952,-2.4976,-2.499,-2.5016,-2.5031,-2.5061,-2.5054,-2.5066,-2.5086,-2.5103,-2.5128,-2.5101,-2.5136,-2.5137,-2.5127,-2.5173,-2.5175,-2.5212,-2.5161,-2.5162,-2.5162,0,-2.4822,-2.485,-2.4902,-2.4933,-2.4945,-2.497,-2.5001,-2.5026,-2.5053,-2.5062,-2.5084,-2.509,-2.5123,-2.5109,-2.5155,-2.5136,-2.5152,-2.5163,-2.5164,-2.5167,-2.515,-2.5175,-2.5225,-2.523,-2.5171,-2.517,-2.517,0,-2.4843,-2.4894,-2.4931,-2.4945,-2.4982,-2.4999,-2.5015,-2.5042,-2.506,-2.5088,-2.51,-2.5131,-2.5147,-2.5171,-2.5185,-2.5174,-2.5229,-2.5217,-2.5236,-2.5236,-2.5246,-2.5245,-2.5297,-2.5259,-2.5259,-2.5259,-2.5259,0,-2.4884,-2.4915,-2.4941,-2.4963,-2.4999,-2.5014,-2.5048,-2.5064,-2.5088,-2.5113,-2.5121,-2.5145,-2.5163,-2.519,-2.5201,-2.5237,-2.5244,-2.5252,-2.5254,-2.525,-2.5249,-2.5259,-2.5257,-2.526,-2.526,-2.526,-2.526,0,-2.4912,-2.4931,-2.4972,-2.5004,-2.5012,-2.5037,-2.5064,-2.5086,-2.5101,-2.5133,-2.5142,-2.5165,-2.5197,-2.5214,-2.5253,-2.5261,-2.53,-2.5302,-2.5291,-2.5292,-2.531,-2.5308,-2.5369,-2.5378,-2.5335,-2.5336,-2.5336,0,-2.4936,-2.4961,-2.4995,-2.5013,-2.503,-2.5059,-2.5078,-2.5095,-2.5114,-2.5148,-2.5166,-2.5198,-2.5224,-2.5274,-2.5294,-2.5325,-2.5326,-2.5346,-2.5331,-2.5326,-2.5325,-2.5323,-2.5325,-2.5348,-2.5348,-2.5349,-2.5349,0,-2.4977,-2.4985,-2.5013,-2.5044,-2.5067,-2.5093,-2.5118,-2.5132,-2.5153,-2.5175,-2.5207,-2.5228,-2.5268,-2.53,-2.5332,-2.5348,-2.5352,-2.5354,-2.536,-2.5355,-2.5347,-2.535,-2.5297,-2.5352,-2.5351,-2.5351,-2.5351,-2.5351,-2.5003,-2.5025,-2.5053,-2.5083,-2.5104,-2.5127,-2.515,-2.5168,-2.5195,-2.523,-2.5238,-2.5272,-2.5299,-2.5342,-2.536,-2.5386,-2.5382,-2.5391,-2.5393,-2.5395,-2.5395,-2.5344,-2.5393,-2.5392,-2.5392,-2.5392,-2.5392,0,-2.5043,-2.5061,-2.509,-2.5125,-2.5149,-2.5152,-2.5179,-2.5199,-2.5229,-2.5254,-2.528,-2.5318,-2.5349,-2.5372,-2.5403,-2.542,-2.5422,-2.5427,-2.5425,-2.5429,-2.5397,-2.5388,-2.5425,-2.5425,-2.5425,-2.5425,-2.5425,-2.5425,-2.5067,-2.5103,-2.5114,-2.5161,-2.5179,-2.5213,-2.5229,-2.525,-2.527,-2.5312,-2.5337,-2.5352,-2.5377,-2.541,-2.5438,-2.5444,-2.5455,-2.546,-2.5465,-2.5435,-2.5431,-2.5428,-2.542,-2.5462,-2.5462,-2.5495,-2.5495,-2.5495]},{"header":{"parameterUnit":"m.s-1","parameterCategory":1,"la1":30.2991,"la2":30.254,"lo1":-89.0895,"lo2":-89.0444,"dy":0.0017,"dx":0.0017,"nx":28,"ny":28,"refTime":"2025-04-21T03:00:00:Z","depth":0,"parameterNumber":3,"parameterNumberName":"V-component_of_WINDS"},"data":[0,0,0,0,0,0,0,0,0,0,0,0,0,0,0,0,0,0,0,0,0,0,0,0,0,0,0,0,0,0,0,0,0,0,0,0,0,0,0,0,0,0,0,0,0,0,0,0,0,0,0,0,0,0,0,0,0,0,2.792,2.792,0,2.7942,2.7942,2.7943,2.7913,2.7912,2.7911,2.791,2.7931,2.7932,2.7934,0,0,0,0,0,0,0,0,0,0,0,0,0,2.785,2.7851,2.792,2.792,2.7921,2.7942,2.7942,2.7943,2.7914,2.7912,2.7911,2.791,2.793,2.7932,2.7934,0,0,0,0,0,0,0,0,0,0,0,0,0,2.7877,2.7852,2.792,2.7909,2.7908,2.7942,2.7943,2.7943,2.7914,2.7912,2.7911,2.7909,2.7929,2.7932,2.7934,2.798,0,0,2.7941,2.7942,0,0,0,0,0,0,0,0,2.7876,2.788,2.791,2.7909,2.7909,2.7923,2.7925,2.7955,2.7914,2.7912,2.791,2.7908,2.7929,2.7932,2.7939,2.7981,2.7981,2.7941,2.7942,2.7943,2.7944,0,0,0,0,0,0,0,2.7874,2.7879,2.7929,2.791,2.791,2.7902,2.7904,2.7931,2.7929,2.7912,2.791,2.7913,2.7929,2.7937,2.7939,2.7982,2.7941,2.7943,2.7944,2.7945,2.8062,2.8064,0,0,0,0,0,0,2.7874,2.7877,2.7928,2.7929,2.7888,2.7904,2.7907,2.792,2.7929,2.7928,2.7914,2.7911,2.7934,2.7937,2.794,2.7994,2.7943,2.7946,2.7947,2.8061,2.8063,2.8065,0,0,0,0,0,0,2.7872,2.7878,2.7927,2.7903,2.7908,2.7907,2.7923,2.7922,2.793,2.793,2.793,2.7923,2.7933,2.7937,2.797,2.7995,2.7947,2.7949,2.8059,2.8061,2.8064,2.8103,0,0,0,0,0,0,2.787,2.7878,2.7896,2.7903,2.791,2.7958,2.7924,2.7923,2.7934,2.7931,2.7939,2.7938,2.7932,2.7967,2.7973,2.7997,2.795,2.8056,2.806,2.8063,2.81,2.8107,2.8113,0,0,0,0,0,2.7868,2.7905,2.7897,2.7903,2.7932,2.7959,2.7963,2.7955,2.7936,2.7954,2.7954,2.7938,2.7991,2.7971,2.7977,2.8002,2.8055,2.8059,2.8063,2.8097,2.8106,2.8113,0,0,0,0,0,0,2.7899,2.7906,2.7897,2.7938,2.7948,2.7954,2.7976,2.7964,2.798,2.7976,2.7965,2.7967,2.8003,2.8006,2.7983,2.8047,2.802,2.8025,2.8044,2.8052,2.8059,2.8057,2.7952,0,0,0,0,0,2.7911,2.7934,2.7938,2.7974,2.798,2.7977,2.7989,2.7982,2.7992,2.7996,2.7999,2.8008,2.8027,2.804,2.8057,2.81,2.8102,2.8121,2.8127,2.8133,2.8137,2.8161,2.817,2.8077,2.8077,2.8077,0,0,2.7936,2.7942,2.7957,2.798,2.7987,2.801,2.7981,2.8006,2.8023,2.7999,2.8032,2.8034,2.8044,2.8083,2.81,2.8086,2.8163,2.8138,2.8142,2.8144,2.8166,2.8175,2.8182,2.808,2.808,2.8079,0,0,2.7992,2.7999,2.803,2.8039,2.805,2.8049,2.8056,2.8064,2.8065,2.8098,2.8081,2.81,2.8133,2.8141,2.8149,2.821,2.8196,2.8216,2.8251,2.8274,2.8281,2.8287,2.8309,2.8317,2.8221,2.8221,2.8221,0,2.802,2.8055,2.8047,2.8074,2.8085,2.8066,2.8098,2.8106,2.8122,2.813,2.8115,2.8156,2.8161,2.8202,2.8217,2.8224,2.8232,2.8215,2.8281,2.8287,2.8293,2.8313,2.8322,2.8223,2.8223,2.8223,2.8222,0,2.809,2.8114,2.8137,2.8156,2.8169,2.8198,2.8194,2.8209,2.8201,2.8201,2.8234,2.824,2.8259,2.8268,2.826,2.8308,2.8299,2.8282,2.8255,2.8304,2.8323,2.8331,2.8227,2.8226,2.8225,2.8224,0,0,2.8166,2.818,2.8189,2.8197,2.8209,2.8228,2.8256,2.8275,2.8288,2.83,2.8323,2.8352,2.8337,2.8346,2.8339,2.836,2.8408,2.834,2.834,2.8353,2.8461,2.8474,2.8483,2.8399,2.84,2.8401,2.846,0,2.8222,2.8272,2.8266,2.8313,2.8336,2.8319,2.8343,2.8353,2.8354,2.8372,2.8373,2.8393,2.8372,2.8378,2.8397,2.8398,2.8429,2.8393,2.842,2.8421,2.8418,2.8493,2.8506,2.8561,2.8468,2.8469,2.847,0,2.8295,2.8311,2.8361,2.8371,2.838,2.8402,2.842,2.8438,2.8449,2.8448,2.8459,2.8449,2.8477,2.8449,2.8487,2.8463,2.8473,2.8475,2.8477,2.8479,2.8448,2.8497,2.8579,2.8587,2.8482,2.8481,2.848,0,2.8346,2.838,2.8415,2.8422,2.8434,2.845,2.8456,2.8465,2.8478,2.8493,2.8501,2.8518,2.8528,2.8542,2.8537,2.8517,2.8576,2.8547,2.8575,2.8576,2.8588,2.8588,2.8673,2.8595,2.8595,2.8595,2.8595,0,2.841,2.8441,2.8438,2.8459,2.8494,2.8487,2.8521,2.8524,2.8533,2.8554,2.854,2.856,2.8551,2.8571,2.8567,2.8599,2.8603,2.8603,2.8602,2.8605,2.8605,2.8611,2.8607,2.8597,2.8597,2.8596,2.8596,0,2.8473,2.8472,2.8508,2.8517,2.852,2.8545,2.8553,2.8572,2.8572,2.8599,2.8605,2.8605,2.8627,2.8623,2.8647,2.8645,2.8685,2.8679,2.8682,2.868,2.8709,2.8706,2.8801,2.8814,2.8728,2.8728,2.8729,0,2.8514,2.8537,2.8549,2.8563,2.857,2.8592,2.8605,2.8599,2.8613,2.8628,2.8646,2.8667,2.8684,2.872,2.8721,2.874,2.8734,2.8766,2.8736,2.8739,2.8734,2.8733,2.8736,2.8772,2.8773,2.8773,2.8774,0,2.8586,2.8585,2.8605,2.8625,2.8641,2.8656,2.8669,2.8681,2.8676,2.8692,2.8715,2.8728,2.8754,2.8775,2.8792,2.8797,2.8785,2.8783,2.8791,2.8794,2.8795,2.8795,2.8698,2.8781,2.878,2.878,2.8779,2.8779,2.864,2.866,2.8673,2.8695,2.8705,2.8718,2.8737,2.874,2.876,2.8781,2.8776,2.8802,2.8812,2.8835,2.8842,2.8862,2.885,2.8861,2.8863,2.8866,2.887,2.8792,2.8865,2.8865,2.8865,2.8864,2.8864,0,2.8712,2.872,2.874,2.876,2.8778,2.8766,2.878,2.8796,2.8819,2.8831,2.8848,2.8875,2.8895,2.8899,2.8918,2.8934,2.8929,2.8939,2.8938,2.8939,2.8879,2.8871,2.8943,2.8943,2.8943,2.8943,2.8943,2.8943,2.8752,2.8787,2.8787,2.8826,2.8833,2.886,2.8869,2.8881,2.889,2.8921,2.8939,2.8941,2.8949,2.897,2.8988,2.8988,2.8996,2.9009,2.9007,2.8951,2.8943,2.8936,2.8928,2.9011,2.9011,2.9065,2.9066,2.9066]}]]